Terug naar catalogus

ISIS 1

ActiefWetenschapPO
NORAD 3669·PAYLOAD·🇨🇦 Canada

Gelanceerd Jan 30, 1969 vanaf Vandenberg Space Force Base

Loading…

Volgende Passages (komende 24 uur)

TLE

VersSource: Space-Track

Epoch: Sep 14, 2026, 09:55 UTC

1 03669U 69009A   26257.41347614  .00000168  00000-0  10374-3 0  9993
2 03669  88.4396 134.6037 1707945  68.1195 309.2329 11.30448969369855

Volg ISIS 1 in realtime met AllMySat

Download on the App Store